Location: Palau
(42.3086°N, 3.1507°E)
Time: 22:43:51
(UTC+00:00)

ADEOS II - Pass Details

Date: 26 May 2020
Orbit: 800 x 800 km, 98.5° (Epoch: 11 July)

Event Time Altitude Azimuth Distance (km) Brightness Sun altitude
Rises 03:03:44 0° 4° (N) 3,319 6.1 -11.6°
Reaches altitude 10° 03:06:14 10° 356° (N) 2,384 5.1 -11.3°
Maximum altitude 03:10:56 34° 293° (WNW) 1,291 3.0 -10.6°
Enters shadow 03:15:03 13° 232° (SW) 2,168 3.7 -10.1°
